Dati Storici

Data ora Umidita' aria (%) Temperatura aria (°C) Rad globale (W/m²) Gonioanemometro (°) Tacoanemometro (m/s) Pioggia (mm)
17-06-2020 06:50 87.9 % 19.467 -58.804 -0.014 0 0
17-06-2020 06:40 88.6 % 19.15 -55.672 -0.012 0 0
17-06-2020 06:30 89.1 % 19.148 -67.834 -0.009 0 0
17-06-2020 06:20 88.5 % 19.186 -58.85 -0.011 0 0
17-06-2020 06:10 88.9 % 19.147 -66.265 -0.01 0 0
17-06-2020 06:00 89.6 % 18.899 -43.146 -0.009 0 0
17-06-2020 05:50 91.5 % 18.897 -45.316 -0.007 0 0
17-06-2020 05:40 95.1 % 18.599 -72.486 -0.009 0 0
17-06-2020 05:30 95.7 % 18.204 -42.217 -0.006 0 0
17-06-2020 05:20 95.7 % 18.083 -61.307 0.423 0 0
17-06-2020 05:10 95.5 % 18.049 -50.662 -0.004 0 0
17-06-2020 05:00 95.5 % 18.08 -53.227 -0.004 0 0
17-06-2020 04:50 95.6 % 18.143 -57.04 -0.004 0 0
17-06-2020 04:40 96.5 % 18.145 -60.22 -0.006 0 0
17-06-2020 04:30 97.6 % 18.057 -48.177 -0 0 0
17-06-2020 04:20 97.6 % 18.02 -67.448 1.409 0 0
17-06-2020 04:10 97.6 % 17.983 -69.084 0.782 0 0
17-06-2020 04:00 97.6 % 18.006 -50.893 0.731 0 0
17-06-2020 03:50 97.6 % 18.042 -56.609 0.563 0 0
17-06-2020 03:40 97.6 % 18.081 -63.485 0.611 0 0

I dati sono presentati in modo automatico a scopo informativo. In seguito a verifica i dati possono subire modifiche o essere invalidati e non riportati negli archivi definitivi.